Flag for Cyprus Weather past 2 weeks in Limassol, Cyprus

Now
52 °F

Clear.


Feels Like: 51 °F
Forecast: 50 / 65 °F
Wind: 3 mph from Northwest

Location: Akrotiri

Current Time: Dec 20, 2014 at 11:42:22 PM

Latest Report: Dec 20, 2014 at 10:50 PM


Visibility: 10 mi

Pressure: 30.12 "Hg

Humidity: 82%

Dew point: 46 °F

Location of LimassolLocation

Historic Weather in Limassol — Graph

°F

Limassol temperature yesterday

Maximum temperature yesterday: 68 °F (at 1:50 PM)
Minimum temperature yesterday: 54 °F (at 5:50 AM)
Average temperature yesterday: 60 °F

Past Weeks' High & Low Weather Summary

 TemperatureHumidityPressure
High72 °F (Dec 9, 10:50 AM)100% (Dec 10, 5:50 AM)30.27 "Hg (Dec 10, 5:50 AM)
Low50 °F (Dec 16, 3:50 AM)43% (Dec 15, 12:50 PM)29.71 "Hg (Dec 9, 4:50 AM)
Average61 °F74%30.05 "Hg
* Reported Dec 5 9:50 PM — Dec 20 9:50 PM, Limassol, Weather by CustomWeather, © 2014

Note: Actual official high and low records may vary slightly from our data, if they occured in-between our weather recording intervals... More about our weather records

Advertising

Limassol weather history for previous 24 hours

 ConditionsComfort  
Time TempWeatherWind HumidityBarometerVisibility
9:50 PM
Dec 20
54 °FClear.3 mph82%30.12 "Hg10 mi
8:50 PM54 °FClear.3 mph88%30.12 "Hg10 mi
7:50 PM55 °FClear.3 mph82%30.12 "Hg10 mi
6:50 PM57 °FPassing clouds.2 mph82%30.09 "HgN/A
5:50 PM57 °FPassing clouds.3 mph82%30.09 "HgN/A
4:50 PM57 °FPassing clouds.3 mph82%30.09 "HgN/A
3:50 PM59 °FScattered clouds.8 mph77%30.09 "HgN/A
2:50 PM55 °FThunderstorms. Broken clouds.14 mph94%30.12 "Hg2 mi
1:50 PM66 °FScattered clouds.6 mph56%30.07 "HgN/A
12:50 PM66 °FPassing clouds.6 mph52%30.07 "HgN/A
11:50 AM64 °FPassing clouds.7 mph52%30.09 "HgN/A
10:50 AM64 °FPassing clouds.7 mph60%30.12 "HgN/A
9:50 AM63 °FPassing clouds.6 mph68%30.12 "HgN/A
8:50 AM57 °FPassing clouds.1 mph77%30.12 "HgN/A
7:50 AM52 °FPassing clouds.5 mph82%30.09 "HgN/A
6:50 AM50 °FPassing clouds.5 mph88%30.09 "HgN/A
5:50 AM50 °FPassing clouds.3 mph88%30.09 "HgN/A
4:50 AM50 °FClear.3 mph88%30.09 "Hg10 mi
3:50 AM50 °FPassing clouds.1 mph88%30.09 "HgN/A
2:50 AM52 °FPassing clouds.2 mph82%30.09 "HgN/A
1:50 AM54 °FPassing clouds.3 mph82%30.09 "HgN/A
12:50 AM52 °FPassing clouds.2 mph88%30.09 "HgN/A
11:50 PM
Dec 19
54 °FPassing clouds.3 mph88%30.09 "HgN/A
Weather by CustomWeather, © 2014

See weather overviewHow to use our weather pages